,,PA_Meas_PMT16A,,PR_Meas_QMR101_102,,RH_Meas_QMH101,,SR_Meas_QMS101,,TA_Meas_QMH101,,GenWind,,GenWind,
time,status,PA,status,PR,status,RH,status,SR,status,TA,status,DirAvg,status,SpdAvg,
2015-01-22, 00:00:04,VALID,922.021,VALID,0,VALID,97.5645,VALID,0,VALID,19.0023,VALID,91,VALID,0,
2015-01-22, 00:01:04,VALID,922.007,VALID,0,VALID,97.5416,VALID,0,VALID,19.0023,VALID,92,VALID,0,
2015-01-22, 00:02:04,VALID,921.983,VALID,0,VALID,97.5569,VALID,0,VALID,18.9619,VALID,92,VALID,0,
2015-01-22, 00:03:04,VALID,921.994,VALID,0,VALID,97.5264,VALID,0,VALID,18.9424,VALID,92,VALID,0,
2015-01-22, 00:04:04,VALID,921.979,VALID,0,VALID,97.5492,VALID,0,VALID,18.9438,VALID,111,VALID,0,
2015-01-22, 00:05:04,VALID,921.968,VALID,0,VALID,97.5416,VALID,0,VALID,18.9438,VALID,111,VALID,0,
2015-01-22, 00:06:04,VALID,921.96,VALID,0,VALID,97.5416,VALID,0,VALID,18.9243,VALID,118,VALID,0,
2015-01-22, 00:07:04,VALID,921.962,VALID,0,VALID,97.5569,VALID,0,VALID,18.9243,VALID,122,VALID,0,
2015-01-22, 00:08:04,VALID,921.961,VALID,0,VALID,97.5721,VALID,0,VALID,18.9229,VALID,113,VALID,0,
2015-01-22, 00:09:04,VALID,921.961,VALID,0,VALID,97.595,VALID,0,VALID,18.9633,VALID,98,VALID,0,
2015-01-22, 00:10:04,VALID,921.93,VALID,0,VALID,97.6255,VALID,0,VALID,18.9633,VALID,98,VALID,0,
2015-01-22, 00:11:04,VALID,921.921,VALID,0,VALID,97.6178,VALID,0,VALID,18.9438,VALID,99,VALID,0,
2015-01-22, 00:12:04,VALID,921.911,VALID,0,VALID,97.6255,VALID,0,VALID,18.9438,VALID,104,VALID,0,
2015-01-22, 00:13:04,VALID,921.905,VALID,0,VALID,97.656,VALID,0,VALID,18.9438,VALID,104,VALID,0,
2015-01-22, 00:14:04,VALID,921.916,VALID,0,VALID,97.6255,VALID,0,VALID,18.9243,VALID,109,VALID,0,
2015-01-22, 00:15:04,VALID,921.903,VALID,0,VALID,97.6255,VALID,0,VALID,18.9243,VALID,105,VALID,0,
2015-01-22, 00:16:04,VALID,921.867,VALID,0,VALID,97.6407,VALID,0,VALID,18.9034,VALID,103,VALID,0,
2015-01-22, 00:17:04,VALID,921.866,VALID,0,VALID,97.6178,VALID,0,VALID,18.9438,VALID,100,VALID,0,
2015-01-22, 00:18:04,VALID,921.861,VALID,0,VALID,97.6255,VALID,0,VALID,18.9633,VALID,104,VALID,0,
2015-01-22, 00:19:04,VALID,921.825,VALID,0,VALID,97.5873,VALID,0,VALID,18.9633,VALID,124,VALID,0,
2015-01-22, 00:20:04,VALID,921.844,VALID,0,VALID,97.5797,VALID,0,VALID,18.9828,VALID,125,VALID,0,
2015-01-22, 00:21:04,VALID,921.852,VALID,0,VALID,97.5492,VALID,0,VALID,19.0037,VALID,125,VALID,0,
2015-01-22, 00:22:04,VALID,921.859,VALID,0,VALID,97.5035,VALID,0.107441,VALID,18.9814,VALID,125,VALID,0,
2015-01-22, 00:23:04,VALID,921.874,VALID,0,VALID,97.4806,VALID,0.107441,VALID,18.9814,VALID,133,VALID,0,
2015-01-22, 00:24:04,VALID,921.894,VALID,0,VALID,97.4501,VALID,0,VALID,19.0008,VALID,146,VALID,0,
2015-01-22, 00:25:04,VALID,921.905,VALID,0,VALID,97.4425,VALID,0.107441,VALID,18.9994,VALID,158,VALID,0,
2015-01-22, 00:26:04,VALID,921.897,VALID,0,VALID,97.4577,VALID,0,VALID,19.0203,VALID,157,VALID,0,
2015-01-22, 00:27:04,VALID,921.901,VALID,0,VALID,97.4959,VALID,0,VALID,19.0008,VALID,157,VALID,0,
2015-01-22, 00:28:04,VALID,921.904,VALID,0,VALID,97.5187,VALID,0,VALID,19.0203,VALID,161,VALID,0,
2015-01-22, 00:29:04,VALID,921.909,VALID,0,VALID,97.5264,VALID,0.107441,VALID,19.0203,VALID,160,VALID,0,
2015-01-22, 00:30:04,VALID,921.875,VALID,0,VALID,97.5721,VALID,0.107441,VALID,19.0203,VALID,157,VALID,0,
2015-01-22, 00:31:04,VALID,921.904,VALID,0,VALID,97.595,VALID,0,VALID,18.9814,VALID,152,VALID,0,
2015-01-22, 00:32:04,VALID,921.911,VALID,0,VALID,97.6026,VALID,0,VALID,18.9814,VALID,144,VALID,0,
2015-01-22, 00:33:04,VALID,921.899,VALID,0,VALID,97.6178,VALID,0.107441,VALID,19.0023,VALID,152,VALID,0,
2015-01-22, 00:34:04,VALID,921.879,VALID,0,VALID,97.6712,VALID,0.107441,VALID,18.9814,VALID,152,VALID,0,
2015-01-22, 00:35:04,VALID,921.869,VALID,0,VALID,97.6712,VALID,0,VALID,18.9799,VALID,152,VALID,0,
2015-01-22, 00:36:04,VALID,921.876,VALID,0,VALID,97.7169,VALID,0.107441,VALID,18.9814,VALID,167,VALID,0,
2015-01-22, 00:37:04,VALID,921.906,VALID,0,VALID,97.7246,VALID,0,VALID,18.9424,VALID,171,VALID,1.13516,
2015-01-22, 00:38:04,VALID,921.885,VALID,0,VALID,97.7551,VALID,0,VALID,18.9842,VALID,161,VALID,1.04492,
2015-01-22, 00:39:04,VALID,921.857,VALID,0,VALID,97.7627,VALID,0,VALID,18.9633,VALID,159,VALID,0.789063,
2015-01-22, 00:40:04,VALID,921.851,VALID,0,VALID,97.7627,VALID,0,VALID,18.9229,VALID,159,VALID,0.754297,
2015-01-22, 00:41:04,VALID,921.869,VALID,0,VALID,97.7932,VALID,0,VALID,18.9438,VALID,160,VALID,1.37734,
2015-01-22, 00:42:04,VALID,921.819,VALID,0,VALID,97.7932,VALID,0,VALID,18.9243,VALID,143,VALID,1.24375,
2015-01-22, 00:43:04,VALID,921.819,VALID,0,VALID,97.8313,VALID,0,VALID,18.9828,VALID,138,VALID,1.32891,
2015-01-22, 00:44:04,VALID,921.791,VALID,0,VALID,97.8389,VALID,0,VALID,19.0023,VALID,126,VALID,1.0543,
2015-01-22, 00:45:04,VALID,921.783,VALID,0,VALID,97.8465,VALID,0,VALID,19.0622,VALID,116,VALID,1.11484,
2015-01-22, 00:46:04,VALID,921.773,VALID,0,VALID,97.8694,VALID,0,VALID,19.0608,VALID,147,VALID,1.21445,
2015-01-22, 00:47:04,VALID,921.786,VALID,0,VALID,97.8694,VALID,0,VALID,19.0788,VALID,151,VALID,0.912109,
2015-01-22, 00:48:04,VALID,921.813,VALID,0,VALID,97.877,VALID,0,VALID,19.1193,VALID,136,VALID,1.32422,
2015-01-22, 00:49:04,VALID,921.826,VALID,0,VALID,97.8923,VALID,0,VALID,19.1388,VALID,131,VALID,1.09609,
2015-01-22, 00:50:04,VALID,921.796,VALID,0,VALID,97.9075,VALID,0,VALID,19.1193,VALID,115,VALID,0.81875,
2015-01-22, 00:51:04,VALID,921.77,VALID,0,VALID,97.9304,VALID,0,VALID,19.1388,VALID,116,VALID,0.941406,
2015-01-22, 00:52:04,VALID,921.783,VALID,0,VALID,97.9304,VALID,0.107441,VALID,19.1568,VALID,111,VALID,1.34297,
2015-01-22, 00:53:04,VALID,921.746,VALID,0,VALID,97.9456,VALID,0,VALID,19.1583,VALID,111,VALID,1.48984,
2015-01-22, 00:54:04,VALID,921.722,VALID,0,VALID,97.938,VALID,0,VALID,19.1568,VALID,98,VALID,1.05664,
2015-01-22, 00:55:04,VALID,921.718,VALID,0,VALID,97.9456,VALID,0,VALID,19.1568,VALID,94,VALID,1.27227,
2015-01-22, 00:56:05,VALID,921.666,VALID,0,VALID,97.9304,VALID,0.107441,VALID,19.1373,VALID,86,VALID,1.74922,
2015-01-22, 00:57:05,VALID,921.702,VALID,0,VALID,97.9533,VALID,0.107441,VALID,19.1373,VALID,103,VALID,1.4832,
2015-01-22, 00:58:05,VALID,921.663,VALID,0,VALID,97.9533,VALID,0.107441,VALID,19.1178,VALID,103,VALID,1.10039,
2015-01-22, 00:59:05,VALID,921.646,VALID,0,VALID,97.9685,VALID,0,VALID,19.1178,VALID,91,VALID,0.723828,
2015-01-22, 01:00:05,VALID,921.635,VALID,0,VALID,97.9761,VALID,0,VALID,19.0774,VALID,108,VALID,1.0082,
2015-01-22, 01:01:05,VALID,921.609,VALID,0,VALID,97.9761,VALID,0,VALID,19.1193,VALID,94,VALID,0.979688,
2015-01-22, 01:02:05,VALID,921.611,VALID,0,VALID,97.9914,VALID,0.107441,VALID,19.0788,VALID,100,VALID,1.36602,
2015-01-22, 01:03:05,VALID,921.607,VALID,0,VALID,97.9914,VALID,0,VALID,19.0593,VALID,110,VALID,1.26797,
2015-01-22, 01:04:05,VALID,921.636,VALID,0,VALID,97.9761,VALID,0,VALID,19.0593,VALID,87,VALID,1.08477,
2015-01-22, 01:05:05,VALID,921.621,VALID,0,VALID,97.9914,VALID,0.107441,VALID,19.0593,VALID,96,VALID,1.22344,
2015-01-22, 01:06:05,VALID,921.595,VALID,0,VALID,97.9914,VALID,0,VALID,19.0398,VALID,92,VALID,1.38086,
2015-01-22, 01:07:05,VALID,921.62,VALID,0,VALID,98.0143,VALID,0,VALID,19.0203,VALID,94,VALID,0.982813,
2015-01-22, 01:08:05,VALID,921.626,VALID,0,VALID,98.0295,VALID,0,VALID,19.0413,VALID,123,VALID,1.36016,
2015-01-22, 01:09:05,VALID,921.612,VALID,0,VALID,98.0143,VALID,0,VALID,19.0413,VALID,110,VALID,1.35352,
2015-01-22, 01:10:05,VALID,921.585,VALID,0,VALID,98.0371,VALID,0,VALID,19.0413,VALID,109,VALID,1.16367,
2015-01-22, 01:11:05,VALID,921.57,VALID,0,VALID,98.0448,VALID,0,VALID,19.0218,VALID,131,VALID,0.555078,
2015-01-22, 01:12:05,VALID,921.59,VALID,0,VALID,98.0448,VALID,0,VALID,19.0218,VALID,126,VALID,0,
2015-01-22, 01:13:05,VALID,921.549,VALID,0,VALID,98.06,VALID,0,VALID,19.0218,VALID,117,VALID,0.942969,
2015-01-22, 01:14:05,VALID,921.559,VALID,0,VALID,98.0448,VALID,0,VALID,19.0413,VALID,132,VALID,0.346484,
2015-01-22, 01:15:05,VALID,921.566,VALID,0,VALID,98.0219,VALID,0,VALID,19.0608,VALID,129,VALID,1.49844,
2015-01-22, 01:16:05,VALID,921.593,VALID,0,VALID,98.06,VALID,0,VALID,19.0803,VALID,133,VALID,0.682031,
2015-01-22, 01:17:05,VALID,921.573,VALID,0,VALID,98.0524,VALID,0,VALID,19.0803,VALID,131,VALID,0.00195313,
2015-01-22, 01:18:05,VALID,921.554,VALID,0,VALID,98.0524,VALID,0,VALID,19.0803,VALID,131,VALID,0,
2015-01-22, 01:19:05,VALID,921.542,VALID,0,VALID,98.0676,VALID,0,VALID,19.0593,VALID,131,VALID,0,
2015-01-22, 01:20:05,VALID,921.521,VALID,0,VALID,98.06,VALID,0,VALID,19.0803,VALID,130,VALID,0,
2015-01-22, 01:21:05,VALID,921.53,VALID,0,VALID,98.0752,VALID,0,VALID,19.0608,VALID,130,VALID,0,
2015-01-22, 01:22:05,VALID,921.521,VALID,0,VALID,98.0905,VALID,0,VALID,19.0218,VALID,118,VALID,0,
2015-01-22, 01:23:05,VALID,921.529,VALID,0,VALID,98.0981,VALID,0,VALID,19.0023,VALID,123,VALID,0,
2015-01-22, 01:24:05,VALID,921.484,VALID,0,VALID,98.0981,VALID,0,VALID,18.9633,VALID,112,VALID,0,
2015-01-22, 01:25:05,VALID,921.489,VALID,0,VALID,98.1057,VALID,0,VALID,18.9438,VALID,118,VALID,0,
2015-01-22, 01:26:05,VALID,921.47,VALID,0,VALID,98.1134,VALID,0,VALID,18.9048,VALID,129,VALID,0.0128906,
2015-01-22, 01:27:05,VALID,921.481,VALID,0,VALID,98.121,VALID,0,VALID,18.8658,VALID,112,VALID,0,
2015-01-22, 01:28:05,VALID,921.462,VALID,0,VALID,98.1286,VALID,0,VALID,18.8672,VALID,112,VALID,0,
2015-01-22, 01:29:05,VALID,921.478,VALID,0,VALID,98.1286,VALID,0,VALID,18.8463,VALID,126,VALID,0.205469,
2015-01-22, 01:30:05,VALID,921.471,VALID,0,VALID,98.1362,VALID,0,VALID,18.8268,VALID,128,VALID,0,
2015-01-22, 01:31:05,VALID,921.456,VALID,0,VALID,98.1286,VALID,0,VALID,18.8463,VALID,136,VALID,0,
2015-01-22, 01:32:05,VALID,921.483,VALID,0,VALID,98.1362,VALID,0,VALID,18.8463,VALID,139,VALID,0,
2015-01-22, 01:33:05,VALID,921.487,VALID,0,VALID,98.1362,VALID,0,VALID,18.8658,VALID,119,VALID,0,
2015-01-22, 01:34:05,VALID,921.483,VALID,0,VALID,98.121,VALID,0,VALID,18.8463,VALID,126,VALID,0.171875,
2015-01-22, 01:35:05,VALID,921.465,VALID,0,VALID,98.1362,VALID,0,VALID,18.8658,VALID,146,VALID,0.821875,
2015-01-22, 01:36:05,VALID,921.478,VALID,0,VALID,98.1134,VALID,0,VALID,18.8853,VALID,149,VALID,0,
2015-01-22, 01:37:05,VALID,921.454,VALID,0,VALID,98.0905,VALID,0,VALID,18.8853,VALID,142,VALID,0,
2015-01-22, 01:38:05,VALID,921.466,VALID,0,VALID,98.0905,VALID,0,VALID,18.9048,VALID,154,VALID,0,
2015-01-22, 01:39:05,VALID,921.491,VALID,0,VALID,98.0752,VALID,0,VALID,18.9243,VALID,166,VALID,0,
2015-01-22, 01:40:05,VALID,921.497,VALID,0,VALID,98.0752,VALID,0,VALID,18.9438,VALID,170,VALID,0,
2015-01-22, 01:41:05,VALID,921.508,VALID,0,VALID,98.0752,VALID,0,VALID,18.9828,VALID,148,VALID,0,
2015-01-22, 01:42:05,VALID,921.51,VALID,0,VALID,98.0752,VALID,0,VALID,18.9633,VALID,156,VALID,0,
2015-01-22, 01:43:05,VALID,921.531,VALID,0,VALID,98.06,VALID,0,VALID,18.9633,VALID,158,VALID,0,
2015-01-22, 01:44:05,VALID,921.518,VALID,0,VALID,98.0448,VALID,0,VALID,18.9828,VALID,130,VALID,0,
2015-01-22, 01:45:05,VALID,921.491,VALID,0,VALID,98.0143,VALID,0,VALID,18.9828,VALID,143,VALID,0,
2015-01-22, 01:46:05,VALID,921.48,VALID,0,VALID,97.999,VALID,0,VALID,18.9828,VALID,137,VALID,0,
2015-01-22, 01:47:05,VALID,921.414,VALID,0,VALID,97.9838,VALID,0,VALID,19.0218,VALID,124,VALID,0.610937,
2015-01-22, 01:48:05,VALID,921.398,VALID,0,VALID,97.9609,VALID,0,VALID,19.0622,VALID,155,VALID,0,
2015-01-22, 01:49:05,VALID,921.413,VALID,0,VALID,97.9533,VALID,0,VALID,19.0817,VALID,136,VALID,0,
2015-01-22, 01:50:05,VALID,921.35,VALID,0,VALID,97.9075,VALID,0,VALID,19.0817,VALID,136,VALID,0,
2015-01-22, 01:51:05,VALID,921.356,VALID,0,VALID,97.8694,VALID,0,VALID,19.0608,VALID,115,VALID,0,
2015-01-22, 01:52:05,VALID,921.287,VALID,0,VALID,97.8313,VALID,0,VALID,19.0803,VALID,93,VALID,0.0359375,
2015-01-22, 01:53:05,VALID,921.254,VALID,0,VALID,97.7779,VALID,0,VALID,19.0998,VALID,55,VALID,0.328125,
2015-01-22, 01:54:05,VALID,921.252,VALID,0,VALID,97.7017,VALID,0,VALID,19.0998,VALID,74,VALID,1.93906,
2015-01-22, 01:55:05,VALID,921.23,VALID,0,VALID,97.6178,VALID,0,VALID,19.0998,VALID,70,VALID,1.43867,
2015-01-22, 01:56:05,VALID,921.19,VALID,0,VALID,97.5416,VALID,0,VALID,19.0803,VALID,55,VALID,1.33359,
2015-01-22, 01:57:05,VALID,921.145,VALID,0,VALID,97.4349,VALID,0,VALID,19.0608,VALID,68,VALID,0.988672,
2015-01-22, 01:58:05,VALID,921.147,VALID,0,VALID,97.3739,VALID,0,VALID,19.0218,VALID,47,VALID,0.1625,
2015-01-22, 01:59:05,VALID,921.144,VALID,0,VALID,97.2977,VALID,0,VALID,19.0218,VALID,55,VALID,0,
2015-01-22, 02:00:05,VALID,921.117,VALID,0,VALID,97.2672,VALID,0,VALID,19.0008,VALID,70,VALID,0,
2015-01-22, 02:01:05,VALID,921.119,VALID,0,VALID,97.2062,VALID,0,VALID,19.0023,VALID,80,VALID,0,
2015-01-22, 02:02:05,VALID,921.119,VALID,0,VALID,97.1757,VALID,0,VALID,19.0218,VALID,76,VALID,0,
2015-01-22, 02:03:05,VALID,921.077,VALID,0,VALID,97.1604,VALID,0,VALID,19.0023,VALID,76,VALID,0,
2015-01-22, 02:04:05,VALID,921.046,VALID,0,VALID,97.1223,VALID,0,VALID,19.0023,VALID,76,VALID,0,
2015-01-22, 02:05:05,VALID,921.037,VALID,0,VALID,97.0994,VALID,0,VALID,19.0023,VALID,97,VALID,0,
2015-01-22, 02:06:05,VALID,921.014,VALID,0,VALID,97.0842,VALID,0,VALID,19.0232,VALID,96,VALID,0,
2015-01-22, 02:07:05,VALID,920.998,VALID,0,VALID,97.0461,VALID,0,VALID,18.9814,VALID,33,VALID,0,
2015-01-22, 02:08:05,VALID,921.001,VALID,0,VALID,97.008,VALID,0,VALID,18.9828,VALID,20,VALID,0,
2015-01-22, 02:09:05,VALID,920.959,VALID,0,VALID,97.008,VALID,0.107441,VALID,18.9229,VALID,30,VALID,0,
2015-01-22, 02:10:05,VALID,920.96,VALID,0,VALID,97.0537,VALID,0,VALID,18.9229,VALID,30,VALID,0,
2015-01-22, 02:11:05,VALID,920.959,VALID,0,VALID,97.0918,VALID,0.107441,VALID,18.9034,VALID,30,VALID,0,
2015-01-22, 02:12:05,VALID,920.927,VALID,0,VALID,97.1147,VALID,0.107441,VALID,18.9034,VALID,30,VALID,0,
2015-01-22, 02:13:05,VALID,920.974,VALID,0,VALID,97.1604,VALID,0.107441,VALID,18.8644,VALID,30,VALID,0,
2015-01-22, 02:14:05,VALID,920.935,VALID,0,VALID,97.1528,VALID,0.107441,VALID,18.8449,VALID,30,VALID,0,
2015-01-22, 02:15:05,VALID,920.945,VALID,0,VALID,97.1909,VALID,0,VALID,18.8449,VALID,30,VALID,0,
2015-01-22, 02:16:05,VALID,920.94,VALID,0,VALID,97.2367,VALID,0.107441,VALID,18.8644,VALID,30,VALID,0,
2015-01-22, 02:17:05,VALID,920.948,VALID,0,VALID,97.2672,VALID,0.107441,VALID,18.8644,VALID,30,VALID,0,
2015-01-22, 02:18:05,VALID,920.918,VALID,0,VALID,97.3205,VALID,0.107441,VALID,18.8644,VALID,64,VALID,0,
2015-01-22, 02:19:05,VALID,920.906,VALID,0,VALID,97.3434,VALID,0,VALID,18.8644,VALID,168,VALID,0,
2015-01-22, 02:20:05,VALID,920.947,VALID,0,VALID,97.3663,VALID,0.107441,VALID,18.8644,VALID,168,VALID,0,
2015-01-22, 02:21:05,VALID,920.923,VALID,0,VALID,97.3739,VALID,0.107441,VALID,18.8839,VALID,169,VALID,0,
2015-01-22, 02:22:05,VALID,920.909,VALID,0,VALID,97.3739,VALID,0,VALID,18.8853,VALID,172,VALID,0,
2015-01-22, 02:23:05,VALID,920.914,VALID,0,VALID,97.3815,VALID,0,VALID,18.8853,VALID,172,VALID,0,
2015-01-22, 02:24:05,VALID,920.935,VALID,0,VALID,97.3739,VALID,0,VALID,18.8853,VALID,175,VALID,0,
2015-01-22, 02:25:05,VALID,920.933,VALID,0,VALID,97.3891,VALID,0,VALID,18.8853,VALID,180,VALID,0,
2015-01-22, 02:26:05,VALID,920.939,VALID,0,VALID,97.4349,VALID,0,VALID,18.9048,VALID,179,VALID,0,
2015-01-22, 02:27:05,VALID,920.921,VALID,0,VALID,97.4577,VALID,0,VALID,18.9243,VALID,175,VALID,0,
2015-01-22, 02:28:05,VALID,920.91,VALID,0,VALID,97.4959,VALID,0,VALID,18.9048,VALID,173,VALID,0,
2015-01-22, 02:29:05,VALID,920.897,VALID,0,VALID,97.4882,VALID,0,VALID,18.9243,VALID,173,VALID,0,
2015-01-22, 02:30:05,VALID,920.909,VALID,0,VALID,97.4959,VALID,0,VALID,18.9243,VALID,173,VALID,0,
2015-01-22, 02:31:05,VALID,920.873,VALID,0,VALID,97.5187,VALID,0,VALID,18.9048,VALID,173,VALID,0,
2015-01-22, 02:32:05,VALID,920.885,VALID,0,VALID,97.5187,VALID,0,VALID,18.9048,VALID,173,VALID,0,
2015-01-22, 02:33:05,VALID,920.871,VALID,0,VALID,97.5264,VALID,0,VALID,18.8853,VALID,173,VALID,0,
2015-01-22, 02:34:05,VALID,920.868,VALID,0,VALID,97.5569,VALID,0,VALID,18.8853,VALID,173,VALID,0,
2015-01-22, 02:35:05,VALID,920.845,VALID,0,VALID,97.5721,VALID,0,VALID,18.9048,VALID,161,VALID,0,
2015-01-22, 02:36:05,VALID,920.833,VALID,0,VALID,97.5721,VALID,0,VALID,18.9048,VALID,140,VALID,0,
2015-01-22, 02:37:05,VALID,920.816,VALID,0,VALID,97.595,VALID,0,VALID,18.9438,VALID,140,VALID,0,
2015-01-22, 02:38:05,VALID,920.817,VALID,0,VALID,97.6102,VALID,0,VALID,18.9424,VALID,137,VALID,0,
2015-01-22, 02:39:05,VALID,920.798,VALID,0,VALID,97.595,VALID,0,VALID,18.9842,VALID,137,VALID,0,
2015-01-22, 02:40:05,VALID,920.778,VALID,0,VALID,97.6102,VALID,0,VALID,18.9633,VALID,137,VALID,0,
2015-01-22, 02:41:05,VALID,920.751,VALID,0,VALID,97.5873,VALID,0,VALID,18.9828,VALID,137,VALID,0,
2015-01-22, 02:42:05,VALID,920.726,VALID,0,VALID,97.5645,VALID,0,VALID,18.9828,VALID,137,VALID,0,
2015-01-22, 02:43:05,VALID,920.699,VALID,0,VALID,97.5416,VALID,0,VALID,19.0023,VALID,137,VALID,0,
2015-01-22, 02:44:05,VALID,920.693,VALID,0,VALID,97.534,VALID,0,VALID,19.0023,VALID,137,VALID,0,
2015-01-22, 02:45:05,VALID,920.667,VALID,0,VALID,97.5035,VALID,0,VALID,19.0008,VALID,137,VALID,0,
2015-01-22, 02:46:05,VALID,920.622,VALID,0,VALID,97.4654,VALID,0,VALID,19.0023,VALID,135,VALID,0,
2015-01-22, 02:47:05,VALID,920.656,VALID,0,VALID,97.4425,VALID,0,VALID,19.0023,VALID,114,VALID,0,
2015-01-22, 02:48:05,VALID,920.642,VALID,0,VALID,97.4425,VALID,0,VALID,18.9828,VALID,129,VALID,0,
2015-01-22, 02:49:05,VALID,920.639,VALID,0,VALID,97.4273,VALID,0,VALID,18.9424,VALID,125,VALID,0,
2015-01-22, 02:50:05,VALID,920.627,VALID,0,VALID,97.4196,VALID,0,VALID,18.9243,VALID,130,VALID,0,
2015-01-22, 02:51:05,VALID,920.588,VALID,0,VALID,97.4425,VALID,0,VALID,18.9243,VALID,132,VALID,0,
2015-01-22, 02:52:05,VALID,920.563,VALID,0,VALID,97.4806,VALID,0,VALID,18.9048,VALID,133,VALID,0,
2015-01-22, 02:53:05,VALID,920.558,VALID,0,VALID,97.4882,VALID,0,VALID,18.8853,VALID,134,VALID,0,
2015-01-22, 02:54:05,VALID,920.542,VALID,0,VALID,97.5264,VALID,0,VALID,18.8658,VALID,136,VALID,0,
2015-01-22, 02:55:05,VALID,920.524,VALID,0,VALID,97.5569,VALID,0,VALID,18.8463,VALID,116,VALID,0,
2015-01-22, 02:56:05,VALID,920.525,VALID,0,VALID,97.5873,VALID,0,VALID,18.8463,VALID,115,VALID,0,
2015-01-22, 02:57:05,VALID,920.505,VALID,0,VALID,97.5873,VALID,0,VALID,18.8268,VALID,115,VALID,0,
2015-01-22, 02:58:05,VALID,920.491,VALID,0,VALID,97.6331,VALID,0,VALID,18.8268,VALID,115,VALID,0,
2015-01-22, 02:59:05,VALID,920.476,VALID,0,VALID,97.6407,VALID,0,VALID,18.8268,VALID,114,VALID,0,
2015-01-22, 03:00:05,VALID,920.444,VALID,0,VALID,97.656,VALID,0,VALID,18.8073,VALID,114,VALID,0,
2015-01-22, 03:01:05,VALID,920.445,VALID,0,VALID,97.6712,VALID,0,VALID,18.8268,VALID,127,VALID,0,
2015-01-22, 03:02:05,VALID,920.445,VALID,0,VALID,97.6788,VALID,0,VALID,18.8268,VALID,128,VALID,0,
2015-01-22, 03:03:05,VALID,920.383,VALID,0,VALID,97.7017,VALID,0,VALID,18.8477,VALID,132,VALID,0,
2015-01-22, 03:04:05,VALID,920.362,VALID,0,VALID,97.7017,VALID,0,VALID,18.8463,VALID,127,VALID,0,
2015-01-22, 03:05:05,VALID,920.344,VALID,0,VALID,97.7246,VALID,0,VALID,18.8463,VALID,125,VALID,0,
2015-01-22, 03:06:05,VALID,920.323,VALID,0,VALID,97.7246,VALID,0,VALID,18.8463,VALID,129,VALID,0,
2015-01-22, 03:07:05,VALID,920.299,VALID,0,VALID,97.7474,VALID,0,VALID,18.8268,VALID,118,VALID,0,
2015-01-22, 03:08:05,VALID,920.254,VALID,0,VALID,97.7169,VALID,0,VALID,18.8268,VALID,116,VALID,0,
2015-01-22, 03:09:05,VALID,920.231,VALID,0,VALID,97.7398,VALID,0,VALID,18.8463,VALID,104,VALID,0,
2015-01-22, 03:10:05,VALID,920.174,VALID,0,VALID,97.7398,VALID,0,VALID,18.8463,VALID,94,VALID,0.154297,
2015-01-22, 03:11:05,VALID,920.144,VALID,0,VALID,97.7246,VALID,0,VALID,18.8268,VALID,90,VALID,0,
2015-01-22, 03:12:05,VALID,920.086,VALID,0,VALID,97.7551,VALID,0,VALID,18.8268,VALID,82,VALID,0,
2015-01-22, 03:13:05,VALID,920.058,VALID,0,VALID,97.7398,VALID,0,VALID,18.8268,VALID,90,VALID,0.402344,
2015-01-22, 03:14:05,VALID,920.009,VALID,0,VALID,97.7322,VALID,0,VALID,18.8073,VALID,81,VALID,0.832031,
2015-01-22, 03:15:05,VALID,919.985,VALID,0,VALID,97.7246,VALID,0,VALID,18.8268,VALID,76,VALID,0.0191406,
2015-01-22, 03:16:05,VALID,919.947,VALID,0,VALID,97.7246,VALID,0,VALID,18.8268,VALID,85,VALID,0.144922,
2015-01-22, 03:17:05,VALID,919.902,VALID,0,VALID,97.7017,VALID,0,VALID,18.8268,VALID,92,VALID,0.0078125,
2015-01-22, 03:18:05,VALID,919.885,VALID,0,VALID,97.6865,VALID,0,VALID,18.8672,VALID,79,VALID,0.0253906,
2015-01-22, 03:19:05,VALID,919.92,VALID,0,VALID,97.6941,VALID,0,VALID,18.8658,VALID,101,VALID,1.29336,
2015-01-22, 03:20:05,VALID,919.914,VALID,0,VALID,97.6941,VALID,0,VALID,18.8658,VALID,112,VALID,1.15352,
2015-01-22, 03:21:05,VALID,919.888,VALID,0,VALID,97.6712,VALID,0,VALID,18.8867,VALID,119,VALID,1.5707,
2015-01-22, 03:22:05,VALID,919.896,VALID,0,VALID,97.6865,VALID,0,VALID,18.8644,VALID,125,VALID,1.38711,
2015-01-22, 03:23:05,VALID,919.911,VALID,0,VALID,97.6788,VALID,0.107441,VALID,18.8644,VALID,136,VALID,1.51094,
2015-01-22, 03:24:05,VALID,919.925,VALID,0,VALID,97.6865,VALID,0,VALID,18.8644,VALID,137,VALID,1.32031,
2015-01-22, 03:25:05,VALID,919.927,VALID,0,VALID,97.6865,VALID,0,VALID,18.8449,VALID,150,VALID,1.17148,
2015-01-22, 03:26:05,VALID,919.971,VALID,0,VALID,97.7017,VALID,0,VALID,18.8449,VALID,159,VALID,0.957422,
2015-01-22, 03:27:05,VALID,920.029,VALID,0,VALID,97.6865,VALID,0,VALID,18.8254,VALID,173,VALID,1.31641,
2015-01-22, 03:28:05,VALID,920.057,VALID,0,VALID,97.7246,VALID,0.107441,VALID,18.8254,VALID,155,VALID,0.785547,
2015-01-22, 03:29:05,VALID,920.052,VALID,0,VALID,97.7474,VALID,0,VALID,18.8059,VALID,165,VALID,0.784766,
2015-01-22, 03:30:05,VALID,920.075,VALID,0,VALID,97.7627,VALID,0,VALID,18.8059,VALID,169,VALID,1.02617,
2015-01-22, 03:31:05,VALID,920.089,VALID,0,VALID,97.7856,VALID,0,VALID,18.8059,VALID,161,VALID,1.48086,
2015-01-22, 03:32:05,VALID,920.08,VALID,0,VALID,97.8084,VALID,0,VALID,18.7864,VALID,145,VALID,0.687891,
2015-01-22, 03:33:05,VALID,920.1,VALID,0,VALID,97.8237,VALID,0,VALID,18.8073,VALID,175,VALID,1.52305,
2015-01-22, 03:34:05,VALID,920.084,VALID,0,VALID,97.8389,VALID,0.107441,VALID,18.8059,VALID,165,VALID,0.482422,
2015-01-22, 03:35:05,VALID,920.093,VALID,0,VALID,97.8694,VALID,0.107441,VALID,18.7864,VALID,190,VALID,0.885156,
2015-01-22, 03:36:05,VALID,920.073,VALID,0,VALID,97.877,VALID,0.107441,VALID,18.8059,VALID,172,VALID,0.670313,
2015-01-22, 03:37:05,VALID,920.042,VALID,0,VALID,97.8923,VALID,0,VALID,18.8073,VALID,163,VALID,0,
2015-01-22, 03:38:05,VALID,920.02,VALID,0,VALID,97.9075,VALID,0,VALID,18.8073,VALID,163,VALID,0,
2015-01-22, 03:39:04,VALID,920.03,VALID,0,VALID,97.9152,VALID,0,VALID,18.8477,VALID,163,VALID,0,
2015-01-22, 03:40:04,VALID,920.019,VALID,0,VALID,97.9228,VALID,0,VALID,18.8477,VALID,164,VALID,0,
2015-01-22, 03:41:04,VALID,920.002,VALID,0,VALID,97.938,VALID,0,VALID,18.8268,VALID,182,VALID,0,
2015-01-22, 03:42:04,VALID,919.99,VALID,0,VALID,97.9456,VALID,0,VALID,18.8268,VALID,175,VALID,1.53945,
2015-01-22, 03:43:04,VALID,920.004,VALID,0,VALID,97.9533,VALID,0,VALID,18.8268,VALID,170,VALID,0.921875,
2015-01-22, 03:44:04,VALID,919.952,VALID,0,VALID,97.9685,VALID,0,VALID,18.8268,VALID,167,VALID,1.30156,
2015-01-22, 03:45:04,VALID,919.966,VALID,0,VALID,97.9533,VALID,0,VALID,18.8268,VALID,171,VALID,1.01875,
2015-01-22, 03:46:04,VALID,919.907,VALID,0,VALID,97.9533,VALID,0,VALID,18.8477,VALID,147,VALID,0.8625,
2015-01-22, 03:47:04,VALID,919.911,VALID,0,VALID,97.9685,VALID,0,VALID,18.8477,VALID,140,VALID,1.56797,
2015-01-22, 03:48:04,VALID,919.878,VALID,0,VALID,97.9838,VALID,0,VALID,18.8867,VALID,144,VALID,1.43203,
2015-01-22, 03:49:04,VALID,919.887,VALID,0,VALID,97.9609,VALID,0,VALID,18.9048,VALID,149,VALID,1.45664,
2015-01-22, 03:50:04,VALID,919.917,VALID,0,VALID,97.9533,VALID,0,VALID,18.9647,VALID,155,VALID,1.23164,
2015-01-22, 03:51:04,VALID,919.896,VALID,0,VALID,97.9685,VALID,0,VALID,18.9633,VALID,152,VALID,0.977734,
2015-01-22, 03:52:04,VALID,919.937,VALID,0,VALID,97.999,VALID,0,VALID,19.0008,VALID,145,VALID,0.851953,